Flag for Germany Weather past 2 weeks in Minden, North Rhine-Westphalia, Germany

Now
64 °F

Broken clouds.


Feels Like: 64 °F
Forecast: 50 / 70 °F
Wind: 7 mph from East

Location: Bueckeburg

Current Time: Sep 2, 2014 at 3:11:01 PM

Latest Report: Sep 2, 2014 at 2:20 PM


Visibility: N/A

Pressure: 30.18 "Hg

Humidity: 83%

Dew point: 59 °F

Location of MindenLocation

Historic Weather in Minden — Graph

°F

Minden temperature yesterday

Maximum temperature yesterday: 64 °F (at 1:20 PM)
Minimum temperature yesterday: 50 °F (at 5:20 AM)
Average temperature yesterday: 58 °F

Past Weeks' High & Low Weather Summary

 TemperatureHumidityPressure
High75 °F (Aug 28, 5:20 PM)100% (Aug 27, 3:20 AM)30.18 "Hg (Aug 27, 3:20 AM)
Low45 °F (Aug 27, 3:20 AM)33% (Aug 27, 6:20 PM)29.62 "Hg (Aug 18, 1:20 PM)
Average58 °F79%29.94 "Hg
* Reported Aug 18 1:20 PM — Sep 2 1:20 PM, Minden, Weather by CustomWeather, © 2014

Note: Actual official high and low records may vary slightly from our data, if they occured in-between our weather recording intervals... More about our weather records

Advertising

Minden weather history for previous 24 hours

 ConditionsComfort  
Time TempWeatherWind HumidityBarometerVisibility
1:20 PM
Sep 2
64 °FPartly sunny.7 mph83%30.18 "HgN/A
12:20 PM63 °FPartly sunny.6 mph88%30.18 "HgN/A
11:20 AM61 °FFog.3 mph94%30.18 "Hg2 mi
10:50 AM59 °FDrizzle. Fog.3 mph100%30.15 "Hg1 mi
10:20 AM59 °FDrizzle. Fog.2 mph100%30.15 "Hg1 mi
9:48 AM59 °FDrizzle. Fog.2 mph94%30.15 "Hg1 mi
9:20 AM57 °FFog.1 mph100%30.15 "Hg1 mi
8:20 AM57 °FFog.5 mph100%30.12 "Hg0 mi
8:01 AM57 °FFog.6 mph100%30.12 "Hg1 mi
7:47 AM57 °FFog.6 mph100%30.12 "Hg1 mi
7:20 AM57 °FDrizzle. Fog.5 mph100%30.12 "Hg2 mi
6:20 AM57 °FFog.3 mph100%30.12 "Hg2 mi
5:20 AM57 °FFog.3 mph94%30.12 "Hg3 mi
5:00 AM57 °FPartly cloudy.5 mph94%30.12 "Hg4 mi
4:20 AM55 °FFog.2 mph100%30.12 "Hg4 mi
3:49 AM55 °FFog.3 mph94%30.12 "Hg3 mi
3:20 AM55 °FFog.2 mph94%30.12 "Hg5 mi
2:20 AM57 °FPassing clouds.3 mph100%30.12 "HgN/A
1:20 AM59 °FPassing clouds.2 mph94%30.12 "HgN/A
12:20 AM59 °FPassing clouds.5 mph94%30.12 "HgN/A
11:20 PM
Sep 1
59 °FPartly cloudy.3 mph94%30.12 "Hg5 mi
10:20 PM59 °FPartly cloudy.1 mph94%30.12 "HgN/A
9:20 PM61 °FPartly cloudy.2 mph88%30.12 "HgN/A
8:20 PM61 °FPartly sunny.6 mph88%30.09 "HgN/A
7:20 PM61 °FPartly sunny.7 mph88%30.09 "HgN/A
6:20 PM63 °FPartly sunny.7 mph83%30.09 "HgN/A
5:20 PM63 °FPartly sunny.6 mph88%30.09 "HgN/A
4:20 PM63 °FBroken clouds.2 mph88%30.09 "Hg5 mi
4:01 PM64 °FRain showers. Partly sunny.6 mph78%30.09 "Hg4 mi
3:20 PM64 °FPartly sunny.8 mph78%30.09 "HgN/A
Weather by CustomWeather, © 2014

See weather overviewHow to use our weather pages